Regional Weather Roundup
Issued by NWS Sioux Falls, SD

Home | Current Version | Previous Version | Text Only | Print | Product List | Glossary Off
Versions: 1 2 3 4 5 6 7 8 9 10 11 12 13 14 15 16 17 18 19 20 21 22 23 24 25 26 27 28 29 30 31 32 33 34 35 36 37 38 39 40 41 42 43 44 45 46 47 48 49 50

000
ASUS43 KFSD 241010
RWRFSD

WEATHER ROUNDUP FOR SE SOUTH DAKOTA/SW MINNESOTA/NW IOWA
NATIONAL WEATHER SERVICE SIOUX FALLS SD
500 AM CDT SAT JUN 24 2017

NOTE: "FAIR" INDICATES FEW OR NO CLOUDS BELOW 12,000 FEET WITH NO
SIGNIFICANT WEATHER AND OR OBSTRUCTIONS TO VISIBILITY.


SDZ038>040-050-052>070-241100-
SOUTHEAST SOUTH DAKOTA

CITY           SKY/WX    TMP DP  RH WIND       PRES   REMARKS
BROOKINGS      CLEAR     45  40  82 SW6       30.09S
CHAMBERLAIN    CLEAR     46  42  87 SW6       30.15S
HURON          CLEAR     46  40  79 W6        30.10F
MADISON        FAIR      45  45 100 W7        30.10F
MITCHELL       CLEAR     49  40  71 SW6       30.12F
SIOUX FALLS    CLEAR     47  43  86 SW5       30.11S
WINNER         FAIR      47  35  63 SW7       30.18S
YANKTON        CLEAR     50  40  68 SW7       30.14F
$$

MNZ071-072-080-081-089-090-097-098-241100-
SOUTHWEST MINNESOTA

CITY           SKY/WX    TMP DP  RH WIND       PRES   REMARKS
FAIRMONT       CLEAR     51  44  77 W12       30.05S
JACKSON        CLEAR     48  43  81 CALM      30.08R
LUVERNE        CLEAR     45  39  81 NW5       30.11S
MARSHALL       CLEAR     49  42  77 W10       30.07R
MONTEVIDEO     CLEAR     48  43  81 NW5       30.04S
PIPESTONE      CLEAR     46  41  81 W5        30.09S
REDWOOD FALLS  CLEAR     49  42  77 W8        30.04R
TRACY          CLEAR     51  43  73 W6        30.07S
WINDOM         CLEAR     48  43  81 W8        30.07R
WORTHINGTON    CLEAR     45  42  89 W9        30.10R
$$

IAZ001>003-012>014-020>022-031-032-NEZ013-014-SDZ071-241100-
NORTHWEST IOWA

CITY           SKY/WX    TMP DP  RH WIND       PRES   REMARKS
DENISON        CLEAR     50  41  71 CALM      30.14S
ESTHERVILLE    CLEAR     48  45  89 W8        30.06S
LE MARS        CLEAR     48  41  76 CALM      30.13S
ORANGE CITY    CLEAR     45  43  93 NW5       30.12S
SHELDON        CLEAR     48  43  81 NW6       30.09S
SIOUX CITY     CLEAR     46  41  82 W3        30.14S
SPENCER        CLEAR     48  43  82 W8        30.09R
STORM LAKE     CLEAR     46  43  87 W8        30.10S
$$

ABBREVIATIONS USED IN REMARKS
   TC - TEMPERATURE IN CELSIUS
  WCI - WIND CHILL INDEX
   HX - HEAT INDEX
  VSB - VISIBILITY





USA.gov is the U.S. government's official web portal to all federal, state and local government web resources and services.